| time (UTC) | temp F | wind direction | speed knots | gust knots | rain 1hr in | rain 24hr in | rain mn in | humidity % | barometer mb |
| 20260507052608 | 57 | 207 | 0.9 | 0.9 | 0.00 | 0.02 | 0.00 | 83 | 991.9 |
| 20260507052108 | 57 | 241 | 0.9 | 1.7 | 0.00 | 0.02 | 0.00 | 83 | 991.8 |
| 20260507051607 | 57 | 239 | 0.9 | 1.7 | 0.00 | 0.02 | 0.00 | 84 | 991.9 |
| 20260507051107 | 57 | 232 | 0.9 | 2.6 | 0.00 | 0.02 | 0.00 | 84 | 991.8 |
| 20260507050606 | 56 | 223 | 3.5 | 4.3 | 0.00 | 0.02 | 0.00 | 86 | 991.7 |
| 20260507050105 | 56 | 234 | 3.5 | 4.3 | 0.00 | 0.02 | 0.00 | 86 | 991.8 |
| 20260507045605 | 56 | 245 | 2.6 | 3.5 | 0.00 | 0.02 | 0.00 | 86 | 991.6 |
| 20260507045105 | 56 | 213 | 0.9 | 1.7 | 0.00 | 0.02 | 0.00 | 87 | 991.7 |
| 20260507044604 | 56 | 187 | 3.5 | 3.5 | 0.00 | 0.02 | 0.00 | 86 | 992.0 |
| 20260507044103 | 56 | 201 | 0.9 | 0.9 | 0.00 | 0.02 | 0.00 | 87 | 991.9 |
| 20260507043603 | 56 | 219 | 1.7 | 1.7 | 0.00 | 0.02 | 0.00 | 87 | 991.9 |
| 20260507043102 | 56 | 207 | 1.7 | 2.6 | 0.00 | 0.02 | 0.00 | 87 | 991.7 |
| 20260507042602 | 56 | 203 | 1.7 | 3.5 | 0.00 | 0.02 | 0.00 | 87 | 991.9 |
| 20260507042101 | 56 | 223 | 1.7 | 1.7 | 0.05 | 0.02 | 0.00 | 87 | 991.7 |
| 20260507041601 | 56 | 228 | 2.6 | 2.6 | 0.05 | 0.02 | 0.00 | 84 | 991.6 |
| 20260507041100 | 56 | 182 | 1.7 | 2.6 | 0.12 | 0.02 | 0.00 | 84 | 991.8 |
| 20260507040600 | 57 | 233 | 1.7 | 2.6 | 0.07 | 0.01 | 0.00 | 83 | 991.9 |
| 20260507040059 | 57 | 226 | 0.0 | 0.9 | 0.00 | 0.00 | 0.00 | 80 | 991.8 |
| 20260507035558 | 58 | 236 | 3.5 | 3.5 | 0.00 | 0.00 | 0.00 | 76 | 991.6 |
| 20260507035058 | 58 | 131 | 2.6 | 4.3 | 0.00 | 0.00 | 0.00 | 74 | 991.4 |
| 20260507034558 | 58 | 231 | 2.6 | 3.5 | 0.00 | 0.00 | 0.00 | 73 | 991.3 |
| 20260507034057 | 58 | 224 | 0.9 | 1.7 | 0.00 | 0.00 | 0.00 | 73 | 991.4 |
| 20260507033556 | 59 | 237 | 0.9 | 1.7 | 0.00 | 0.00 | 0.00 | 72 | 991.3 |
| 20260507033056 | 59 | 221 | 1.7 | 2.6 | 0.00 | 0.00 | 0.00 | 72 | 991.4 |
| 20260507032555 | 59 | 230 | 2.6 | 2.6 | 0.00 | 0.00 | 0.00 | 72 | 991.2 |
| 20260507032055 | 59 | 201 | 0.0 | 0.0 | 0.00 | 0.00 | 0.00 | 72 | 991.4 |
| 20260507031554 | 59 | 212 | 0.9 | 1.7 | 0.00 | 0.00 | 0.00 | 71 | 991.3 |
| 20260507031053 | 59 | 234 | 3.5 | 4.3 | 0.00 | 0.00 | 0.00 | 71 | 991.2 |
| 20260507030553 | 59 | 201 | 1.7 | 2.6 | 0.00 | 0.00 | 0.00 | 71 | 991.2 |
| 20260507030053 | 59 | 235 | 2.6 | 2.6 | 0.00 | 0.00 | 0.00 | 71 | 991.3 |
| 20260507025552 | 59 | 216 | 2.6 | 3.5 | 0.00 | 0.00 | 0.00 | 71 | 991.4 |
| 20260507025051 | 59 | 227 | 2.6 | 2.6 | 0.00 | 0.00 | 0.00 | 70 | 991.4 |
| 20260507024551 | 59 | 251 | 2.6 | 3.5 | 0.00 | 0.00 | 0.00 | 70 | 991.5 |
| 20260507024051 | 59 | 240 | 1.7 | 2.6 | 0.00 | 0.00 | 0.00 | 70 | 991.2 |
| 20260507023550 | 59 | 241 | 3.5 | 4.3 | 0.00 | 0.00 | 0.00 | 70 | 991.3 |
| 20260507023049 | 59 | 226 | 2.6 | 2.6 | 0.00 | 0.00 | 0.00 | 70 | 991.3 |
| 20260507022549 | 59 | 224 | 2.6 | 3.5 | 0.00 | 0.00 | 0.00 | 70 | 991.2 |
| 20260507022048 | 59 | 226 | 0.9 | 0.9 | 0.00 | 0.00 | 0.00 | 70 | 991.1 |
| 20260507021548 | 59 | 224 | 0.0 | 0.9 | 0.00 | 0.00 | 0.00 | 70 | 991.2 |
| 20260507021047 | 59 | 172 | 0.0 | 0.9 | 0.00 | 0.00 | 0.00 | 70 | 991.1 |
| 20260507020547 | 59 | 210 | 0.0 | 0.0 | 0.00 | 0.00 | 0.00 | 71 | 991.2 |
| 20260507020046 | 59 | 203 | 0.9 | 0.9 | 0.00 | 0.00 | 0.00 | 71 | 991.3 |
| 20260507015546 | 60 | 231 | 0.9 | 0.9 | 0.00 | 0.00 | 0.00 | 70 | 991.1 |
| 20260507015045 | 60 | 239 | 1.7 | 3.5 | 0.00 | 0.00 | 0.00 | 69 | 991.1 |
| 20260507014545 | 60 | 236 | 5.2 | 6.1 | 0.00 | 0.00 | 0.00 | 69 | 991.0 |
| 20260507014044 | 60 | 229 | 1.7 | 2.6 | 0.00 | 0.00 | 0.00 | 68 | 990.9 |
| 20260507013544 | 60 | 203 | 2.6 | 2.6 | 0.00 | 0.00 | 0.00 | 68 | 990.9 |
| 20260507013043 | 59 | 222 | 1.7 | 2.6 | 0.00 | 0.00 | 0.00 | 69 | 991.1 |
| 20260507012543 | 58 | 225 | 2.6 | 4.3 | 0.00 | 0.00 | 0.00 | 71 | 991.0 |
| 20260507012042 | 57 | 229 | 0.0 | 0.0 | 0.00 | 0.00 | 0.00 | 75 | 990.9 |
| 20260507011542 | 58 | 229 | 0.0 | 0.0 | 0.00 | 0.00 | 0.00 | 73 | 991.0 |
| 20260507011042 | 59 | 229 | 0.0 | 0.0 | 0.00 | 0.00 | 0.00 | 71 | 990.9 |
| 20260507010541 | 60 | 229 | 0.0 | 0.0 | 0.00 | 0.00 | 0.00 | 69 | 991.0 |
| 20260507010040 | 60 | 231 | 0.9 | 1.7 | 0.00 | 0.00 | 0.00 | 68 | 990.9 |
| 20260507005540 | 60 | 240 | 1.7 | 2.6 | 0.00 | 0.00 | 0.00 | 68 | 991.0 |
| 20260507005039 | 59 | 226 | 0.0 | 0.0 | 0.00 | 0.00 | 0.00 | 69 | 990.8 |
| 20260507004038 | 60 | 234 | 0.9 | 1.7 | 0.00 | 0.00 | 0.00 | 67 | 990.9 |
| 20260507003537 | 60 | 196 | 0.0 | 0.0 | 0.00 | 0.00 | 0.00 | 68 | 991.0 |
| 20260507003037 | 61 | 267 | 1.7 | 1.7 | 0.00 | 0.00 | 0.00 | 66 | 991.0 |
| 20260507002536 | 61 | 231 | 1.7 | 1.7 | 0.00 | 0.00 | 0.00 | 65 | 991.0 |
| 20260507002036 | 62 | 179 | 0.9 | 1.7 | 0.00 | 0.00 | 0.00 | 64 | 990.9 |
| 20260507001535 | 62 | 224 | 1.7 | 2.6 | 0.00 | 0.00 | 0.00 | 63 | 991.1 |
| 20260507001035 | 62 | 228 | 3.5 | 4.3 | 0.00 | 0.00 | 0.00 | 62 | 990.9 |
| 20260507000534 | 62 | 214 | 3.5 | 5.2 | 0.00 | 0.00 | 0.00 | 63 | 990.7 |
| 20260507000033 | 62 | 233 | 2.6 | 3.5 | 0.00 | 0.00 | 0.00 | 63 | 990.9 |
| 20260506235533 | 62 | 228 | 3.5 | 3.5 | 0.00 | 0.00 | 0.00 | 62 | 990.7 |
| 20260506235032 | 62 | 227 | 1.7 | 2.6 | 0.00 | 0.00 | 0.00 | 63 | 990.9 |
| 20260506234532 | 62 | 241 | 3.5 | 4.3 | 0.00 | 0.00 | 0.00 | 63 | 990.8 |
| 20260506234031 | 62 | 236 | 3.5 | 4.3 | 0.00 | 0.00 | 0.00 | 62 | 990.8 |
| 20260506233531 | 62 | 237 | 3.5 | 6.1 | 0.00 | 0.00 | 0.00 | 63 | 990.8 |
| 20260506233030 | 61 | 233 | 4.3 | 5.2 | 0.00 | 0.00 | 0.00 | 64 | 990.8 |
| 20260506232530 | 59 | 226 | 2.6 | 4.3 | 0.00 | 0.00 | 0.00 | 68 | 990.6 |
| 20260506232029 | 54 | 191 | 0.0 | 0.0 | 0.00 | 0.00 | 0.00 | 79 | 990.7 |
| 20260506231529 | 53 | 276 | 1.7 | 1.7 | 0.00 | 0.00 | 0.00 | 81 | 990.5 |
| 20260506231028 | 53 | 164 | 0.0 | 0.0 | 0.00 | 0.00 | 0.00 | 81 | 990.8 |
| 20260506230528 | 53 | 168 | 0.0 | 0.0 | 0.00 | 0.00 | 0.00 | 80 | 990.6 |
| 20260506230027 | 54 | 168 | 0.0 | 0.0 | 0.00 | 0.00 | 0.00 | 79 | 990.8 |
| 20260506225527 | 54 | 239 | 0.9 | 1.7 | 0.00 | 0.00 | 0.00 | 79 | 990.6 |
| 20260506225026 | 56 | 145 | 0.0 | 0.0 | 0.00 | 0.00 | 0.00 | 76 | 990.8 |
| 20260506224526 | 56 | 144 | 0.0 | 0.0 | 0.00 | 0.00 | 0.00 | 75 | 990.7 |
| 20260506224025 | 56 | 145 | 0.0 | 0.0 | 0.00 | 0.00 | 0.00 | 76 | 990.9 |
| 20260506223524 | 57 | 144 | 0.0 | 0.0 | 0.00 | 0.00 | 0.00 | 73 | 990.9 |
| 20260506223024 | 56 | 222 | 0.9 | 0.9 | 0.00 | 0.00 | 0.00 | 74 | 991.0 |
| 20260506222523 | 55 | 115 | 0.9 | 0.9 | 0.00 | 0.00 | 0.00 | 74 | 990.9 |
| 20260506222023 | 55 | 212 | 0.0 | 0.9 | 0.00 | 0.00 | 0.00 | 76 | 990.9 |
| 20260506221522 | 56 | 174 | 0.0 | 0.0 | 0.00 | 0.00 | 0.00 | 74 | 991.1 |
| 20260506221022 | 56 | 174 | 0.0 | 0.0 | 0.00 | 0.00 | 0.00 | 74 | 991.0 |
| 20260506220521 | 56 | 174 | 0.0 | 0.0 | 0.00 | 0.00 | 0.00 | 73 | 991.0 |
| 20260506220021 | 58 | 173 | 0.0 | 0.0 | 0.00 | 0.00 | 0.00 | 70 | 991.0 |
| 20260506215519 | 58 | 220 | 0.0 | 0.9 | 0.00 | 0.00 | 0.00 | 68 | 990.9 |
| 20260506215018 | 59 | 222 | 1.7 | 2.6 | 0.00 | 0.00 | 0.00 | 64 | 990.9 |
| 20260506214518 | 60 | 221 | 0.0 | 0.0 | 0.00 | 0.00 | 0.00 | 64 | 991.1 |
| 20260506214017 | 61 | 221 | 0.0 | 0.0 | 0.00 | 0.00 | 0.00 | 62 | 990.9 |
| 20260506213517 | 62 | 219 | 0.9 | 0.9 | 0.00 | 0.00 | 0.00 | 60 | 990.9 |
| 20260506213016 | 62 | 236 | 1.7 | 1.7 | 0.00 | 0.00 | 0.00 | 58 | 991.0 |
| 20260506212515 | 62 | 211 | 0.9 | 1.7 | 0.00 | 0.00 | 0.00 | 58 | 991.1 |
| 20260506212015 | 62 | 233 | 2.6 | 3.5 | 0.00 | 0.00 | 0.00 | 59 | 991.0 |
| 20260506211514 | 61 | 250 | 1.7 | 3.5 | 0.00 | 0.00 | 0.00 | 59 | 991.0 |
| 20260506211014 | 62 | 222 | 1.7 | 2.6 | 0.00 | 0.00 | 0.00 | 59 | 991.1 |
| 20260506210513 | 62 | 219 | 0.0 | 0.0 | 0.00 | 0.00 | 0.00 | 59 | 991.0 |
| 20260506210013 | 62 | 226 | 2.6 | 3.5 | 0.00 | 0.00 | 0.00 | 58 | 991.1 |
| 20260506205512 | 62 | 219 | 1.7 | 2.6 | 0.00 | 0.00 | 0.00 | 58 | 991.1 |
| 20260506205011 | 62 | 232 | 1.7 | 1.7 | 0.00 | 0.00 | 0.00 | 59 | 990.8 |
| 20260506204511 | 62 | 201 | 3.5 | 4.3 | 0.00 | 0.00 | 0.00 | 59 | 990.8 |
| 20260506204010 | 61 | 227 | 1.7 | 1.7 | 0.00 | 0.00 | 0.00 | 60 | 990.9 |
| 20260506203510 | 59 | 224 | 1.7 | 1.7 | 0.00 | 0.00 | 0.00 | 64 | 990.9 |
| 20260506203009 | 57 | 230 | 0.9 | 1.7 | 0.00 | 0.00 | 0.00 | 69 | 991.0 |
| 20260506202509 | 57 | 229 | 0.0 | 0.0 | 0.00 | 0.00 | 0.00 | 71 | 990.8 |
| 20260506202008 | 58 | 229 | 0.0 | 0.0 | 0.00 | 0.00 | 0.00 | 69 | 990.9 |
| 20260506201507 | 59 | 229 | 0.0 | 0.0 | 0.00 | 0.00 | 0.00 | 68 | 990.8 |
| 20260506201007 | 59 | 226 | 0.9 | 0.9 | 0.00 | 0.00 | 0.00 | 65 | 990.7 |
| 20260506200506 | 58 | 215 | 0.0 | 0.0 | 0.00 | 0.00 | 0.00 | 68 | 990.8 |
| 20260506200006 | 59 | 215 | 0.0 | 0.0 | 0.00 | 0.00 | 0.00 | 67 | 990.9 |
| 20260506195505 | 60 | 221 | 0.9 | 0.9 | 0.00 | 0.00 | 0.00 | 66 | 990.6 |
| 20260506195004 | 60 | 248 | 1.7 | 2.6 | 0.00 | 0.00 | 0.00 | 65 | 990.7 |
| 20260506194503 | 59 | 215 | 0.0 | 0.0 | 0.00 | 0.00 | 0.00 | 66 | 990.7 |
| 20260506194003 | 60 | 211 | 0.0 | 0.0 | 0.00 | 0.00 | 0.00 | 65 | 990.9 |
| 20260506193502 | 61 | 177 | 0.0 | 0.0 | 0.00 | 0.00 | 0.00 | 63 | 990.7 |
| 20260506193001 | 62 | 222 | 0.0 | 0.9 | 0.00 | 0.00 | 0.00 | 61 | 990.8 |
| 20260506192501 | 62 | 217 | 0.9 | 0.9 | 0.00 | 0.00 | 0.00 | 60 | 990.8 |
| 20260506192000 | 62 | 228 | 0.9 | 1.7 | 0.00 | 0.00 | 0.00 | 60 | 990.6 |
| 20260506191459 | 63 | 197 | 3.5 | 4.3 | 0.00 | 0.00 | 0.00 | 59 | 990.5 |
| 20260506190959 | 63 | 224 | 0.9 | 1.7 | 0.00 | 0.00 | 0.00 | 59 | 990.6 |
| 20260506190458 | 63 | 221 | 1.7 | 1.7 | 0.00 | 0.00 | 0.00 | 58 | 990.6 |
| 20260506185957 | 63 | 232 | 0.9 | 1.7 | 0.00 | 0.00 | 0.00 | 58 | 990.6 |
| 20260506185457 | 64 | 212 | 0.0 | 0.0 | 0.00 | 0.00 | 0.00 | 57 | 990.8 |
| 20260506184956 | 65 | 222 | 0.9 | 1.7 | 0.00 | 0.00 | 0.00 | 55 | 990.6 |
| 20260506184456 | 65 | 237 | 2.6 | 3.5 | 0.00 | 0.00 | 0.00 | 54 | 990.8 |
| 20260506183955 | 65 | 183 | 1.7 | 2.6 | 0.00 | 0.00 | 0.00 | 54 | 990.6 |
| 20260506183455 | 65 | 229 | 2.6 | 3.5 | 0.00 | 0.00 | 0.00 | 54 | 990.6 |
| 20260506182954 | 65 | 223 | 0.9 | 1.7 | 0.00 | 0.00 | 0.00 | 54 | 990.5 |
| 20260506182454 | 65 | 221 | 1.7 | 1.7 | 0.00 | 0.00 | 0.00 | 54 | 990.6 |
| 20260506181953 | 65 | 233 | 1.7 | 2.6 | 0.00 | 0.00 | 0.00 | 54 | 990.4 |
| 20260506181453 | 66 | 226 | 0.0 | 0.0 | 0.00 | 0.00 | 0.00 | 54 | 990.3 |
| 20260506180952 | 66 | 228 | 3.5 | 4.3 | 0.00 | 0.00 | 0.00 | 53 | 990.3 |
| 20260506180451 | 66 | 211 | 0.9 | 0.9 | 0.00 | 0.00 | 0.00 | 53 | 990.2 |
| 20260506175951 | 66 | 175 | 2.6 | 3.5 | 0.00 | 0.00 | 0.00 | 52 | 990.3 |
| 20260506175450 | 66 | 195 | 2.6 | 3.5 | 0.00 | 0.00 | 0.00 | 52 | 990.3 |
| 20260506174950 | 67 | 229 | 1.7 | 2.6 | 0.00 | 0.00 | 0.00 | 53 | 990.3 |
| 20260506174449 | 67 | 207 | 0.9 | 1.7 | 0.00 | 0.00 | 0.00 | 52 | 990.3 |
| 20260506173948 | 67 | 143 | 0.0 | 0.9 | 0.00 | 0.00 | 0.00 | 53 | 990.3 |
| 20260506173448 | 67 | 217 | 0.0 | 0.0 | 0.00 | 0.00 | 0.00 | 52 | 990.1 |
| 20260506172947 | 68 | 223 | 2.6 | 3.5 | 0.00 | 0.00 | 0.00 | 51 | 990.1 |
| 20260506172447 | 68 | 214 | 2.6 | 3.5 | 0.00 | 0.00 | 0.00 | 51 | 990.2 |
| 20260506171946 | 68 | 227 | 3.5 | 3.5 | 0.00 | 0.00 | 0.00 | 50 | 990.2 |
| 20260506171446 | 68 | 160 | 0.9 | 0.9 | 0.00 | 0.00 | 0.00 | 50 | 990.3 |
| 20260506170945 | 68 | 101 | 2.6 | 3.5 | 0.00 | 0.00 | 0.00 | 50 | 990.2 |
| 20260506170445 | 68 | 223 | 0.9 | 0.9 | 0.00 | 0.00 | 0.00 | 49 | 990.3 |
| 20260506165944 | 69 | 226 | 0.9 | 1.7 | 0.00 | 0.00 | 0.00 | 50 | 990.2 |
| 20260506165443 | 69 | 143 | 0.9 | 0.9 | 0.00 | 0.00 | 0.00 | 49 | 990.0 |
| 20260506164943 | 69 | 209 | 0.9 | 0.9 | 0.00 | 0.00 | 0.00 | 49 | 990.0 |
| 20260506164442 | 70 | 61 | 1.7 | 2.6 | 0.00 | 0.00 | 0.00 | 47 | 990.0 |
| 20260506163942 | 70 | 215 | 2.6 | 3.5 | 0.00 | 0.00 | 0.00 | 47 | 990.0 |
| 20260506163441 | 70 | 205 | 1.7 | 2.6 | 0.00 | 0.00 | 0.00 | 47 | 990.1 |
| 20260506162941 | 70 | 241 | 1.7 | 2.6 | 0.00 | 0.00 | 0.00 | 47 | 990.0 |
| 20260506162440 | 70 | 224 | 5.2 | 6.1 | 0.00 | 0.00 | 0.00 | 46 | 990.0 |
| 20260506161939 | 70 | 187 | 0.0 | 0.9 | 0.00 | 0.00 | 0.00 | 48 | 990.0 |
| 20260506161439 | 71 | 229 | 3.5 | 4.3 | 0.00 | 0.00 | 0.00 | 45 | 990.0 |
| 20260506160938 | 72 | 215 | 1.7 | 1.7 | 0.00 | 0.00 | 0.00 | 44 | 989.8 |
| 20260506160438 | 73 | 194 | 0.0 | 0.9 | 0.00 | 0.00 | 0.00 | 43 | 989.9 |
| 20260506155937 | 74 | 223 | 3.5 | 4.3 | 0.00 | 0.00 | 0.00 | 42 | 989.9 |
| 20260506155437 | 75 | 219 | 2.6 | 3.5 | 0.00 | 0.00 | 0.00 | 42 | 990.0 |
| 20260506154936 | 75 | 142 | 1.7 | 2.6 | 0.00 | 0.00 | 0.00 | 42 | 990.0 |
| 20260506154435 | 74 | 221 | 2.6 | 4.3 | 0.00 | 0.00 | 0.00 | 42 | 989.7 |
| 20260506153935 | 74 | 215 | 3.5 | 5.2 | 0.00 | 0.00 | 0.00 | 42 | 989.9 |
| 20260506153434 | 74 | 235 | 5.2 | 7.8 | 0.00 | 0.00 | 0.00 | 42 | 989.9 |
| 20260506152934 | 74 | 247 | 0.9 | 1.7 | 0.00 | 0.00 | 0.00 | 42 | 989.8 |
| 20260506152433 | 74 | 231 | 3.5 | 5.2 | 0.00 | 0.00 | 0.00 | 42 | 989.9 |
| 20260506151933 | 74 | 209 | 2.6 | 5.2 | 0.00 | 0.00 | 0.00 | 42 | 990.2 |
| 20260506151432 | 74 | 205 | 4.3 | 7.8 | 0.00 | 0.00 | 0.00 | 42 | 990.0 |
| 20260506150932 | 74 | 231 | 7.0 | 9.6 | 0.00 | 0.00 | 0.00 | 41 | 990.2 |
| 20260506150431 | 74 | 211 | 4.3 | 7.8 | 0.00 | 0.00 | 0.00 | 42 | 990.2 |
| 20260506145931 | 75 | 224 | 4.3 | 8.7 | 0.00 | 0.00 | 0.00 | 41 | 990.3 |
| 20260506145430 | 76 | 220 | 2.6 | 3.5 | 0.00 | 0.00 | 0.00 | 41 | 990.1 |
| 20260506144930 | 74 | 182 | 3.5 | 5.2 | 0.00 | 0.00 | 0.00 | 40 | 990.2 |
| 20260506144429 | 75 | 207 | 5.2 | 7.8 | 0.00 | 0.00 | 0.00 | 39 | 990.2 |
| 20260506143928 | 75 | 200 | 7.8 | 10.4 | 0.00 | 0.00 | 0.00 | 40 | 990.5 |
| 20260506143428 | 75 | 242 | 6.1 | 7.8 | 0.00 | 0.00 | 0.00 | 43 | 990.4 |
| 20260506142927 | 75 | 295 | 4.3 | 6.1 | 0.00 | 0.00 | 0.00 | 41 | 990.3 |
| 20260506142426 | 76 | 229 | 5.2 | 6.1 | 0.00 | 0.00 | 0.00 | 39 | 990.5 |
| 20260506141926 | 76 | 130 | 2.6 | 4.3 | 0.00 | 0.00 | 0.00 | 40 | 990.2 |
| 20260506141425 | 75 | 213 | 5.2 | 6.1 | 0.00 | 0.00 | 0.00 | 41 | 990.5 |
| 20260506140925 | 74 | 250 | 6.1 | 8.7 | 0.00 | 0.00 | 0.00 | 41 | 990.5 |
| 20260506140424 | 74 | 277 | 6.1 | 9.6 | 0.00 | 0.00 | 0.00 | 41 | 990.6 |
| 20260506135923 | 75 | 278 | 8.7 | 11.3 | 0.00 | 0.00 | 0.00 | 40 | 990.6 |
| 20260506135423 | 75 | 231 | 2.6 | 4.3 | 0.00 | 0.00 | 0.00 | 40 | 990.7 |
| 20260506134922 | 75 | 183 | 4.3 | 5.2 | 0.00 | 0.00 | 0.00 | 40 | 990.7 |
| 20260506134422 | 76 | 248 | 3.5 | 3.5 | 0.00 | 0.00 | 0.00 | 40 | 990.8 |
| 20260506133921 | 75 | 224 | 5.2 | 6.1 | 0.00 | 0.00 | 0.00 | 39 | 990.7 |
| 20260506133421 | 75 | 185 | 7.0 | 9.6 | 0.00 | 0.00 | 0.00 | 38 | 990.5 |
| 20260506132920 | 74 | 221 | 7.0 | 9.6 | 0.00 | 0.00 | 0.00 | 38 | 990.6 |
| 20260506132419 | 75 | 229 | 7.8 | 10.4 | 0.00 | 0.00 | 0.00 | 38 | 990.6 |
| 20260506131919 | 75 | 210 | 1.7 | 2.6 | 0.00 | 0.00 | 0.00 | 40 | 990.9 |
| 20260506131418 | 75 | 210 | 4.3 | 5.2 | 0.00 | 0.00 | 0.00 | 39 | 990.9 |
| 20260506130918 | 75 | 185 | 7.0 | 10.4 | 0.00 | 0.00 | 0.00 | 39 | 990.7 |
| 20260506130417 | 76 | 229 | 6.1 | 9.6 | 0.00 | 0.00 | 0.00 | 38 | 990.7 |
| 20260506125917 | 75 | 227 | 7.0 | 8.7 | 0.00 | 0.00 | 0.00 | 38 | 990.6 |
| 20260506125416 | 76 | 210 | 6.1 | 8.7 | 0.00 | 0.00 | 0.00 | 38 | 990.6 |
| 20260506124915 | 75 | 209 | 6.1 | 9.6 | 0.00 | 0.00 | 0.00 | 37 | 990.7 |
| 20260506124415 | 75 | 235 | 4.3 | 5.2 | 0.00 | 0.00 | 0.00 | 38 | 990.6 |
| 20260506123914 | 75 | 239 | 8.7 | 10.4 | 0.00 | 0.00 | 0.00 | 38 | 990.8 |
| 20260506123414 | 76 | 99 | 3.5 | 7.0 | 0.00 | 0.00 | 0.00 | 38 | 990.7 |
| 20260506122913 | 75 | 228 | 2.6 | 4.3 | 0.00 | 0.00 | 0.00 | 38 | 990.8 |
| 20260506122413 | 75 | 312 | 2.6 | 4.3 | 0.00 | 0.00 | 0.00 | 37 | 991.1 |
| 20260506121912 | 76 | 232 | 2.6 | 3.5 | 0.00 | 0.00 | 0.00 | 36 | 990.8 |
| 20260506121412 | 76 | 209 | 4.3 | 6.1 | 0.00 | 0.00 | 0.00 | 37 | 990.9 |
| 20260506120911 | 77 | 269 | 6.1 | 7.8 | 0.00 | 0.00 | 0.00 | 36 | 991.1 |
| 20260506120411 | 75 | 221 | 2.6 | 4.3 | 0.00 | 0.00 | 0.00 | 38 | 991.0 |
| 20260506115910 | 75 | 226 | 5.2 | 7.0 | 0.00 | 0.00 | 0.00 | 37 | 990.9 |
| 20260506115409 | 77 | 186 | 1.7 | 1.7 | 0.00 | 0.00 | 0.00 | 36 | 991.1 |
| 20260506114909 | 75 | 315 | 1.7 | 3.5 | 0.00 | 0.00 | 0.00 | 37 | 991.0 |
| 20260506114409 | 76 | 206 | 2.6 | 4.3 | 0.00 | 0.00 | 0.00 | 37 | 990.9 |
| 20260506113907 | 76 | 226 | 1.7 | 2.6 | 0.00 | 0.00 | 0.00 | 37 | 991.2 |
| 20260506113407 | 74 | 216 | 6.1 | 9.6 | 0.00 | 0.00 | 0.00 | 37 | 991.0 |
| 20260506112907 | 74 | 230 | 7.8 | 11.3 | 0.00 | 0.00 | 0.00 | 36 | 991.2 |
| 20260506112406 | 75 | 188 | 0.9 | 1.7 | 0.00 | 0.00 | 0.00 | 38 | 991.1 |
| 20260506111905 | 75 | 218 | 4.3 | 7.0 | 0.00 | 0.00 | 0.00 | 38 | 990.9 |
| 20260506111405 | 74 | 225 | 2.6 | 3.5 | 0.00 | 0.00 | 0.00 | 38 | 991.0 |
| 20260506110904 | 75 | 226 | 6.1 | 8.7 | 0.00 | 0.00 | 0.00 | 38 | 990.9 |
| 20260506110403 | 76 | 236 | 5.2 | 9.6 | 0.00 | 0.00 | 0.00 | 38 | 990.8 |
| 20260506105903 | 74 | 165 | 1.7 | 2.6 | 0.00 | 0.00 | 0.00 | 39 | 990.9 |
| 20260506105402 | 75 | 199 | 3.5 | 7.0 | 0.00 | 0.00 | 0.00 | 38 | 991.2 |
| 20260506104902 | 75 | 235 | 7.0 | 9.6 | 0.00 | 0.00 | 0.00 | 39 | 991.1 |
| 20260506104401 | 74 | 241 | 4.3 | 5.2 | 0.00 | 0.00 | 0.00 | 41 | 990.9 |
| 20260506103901 | 74 | 234 | 3.5 | 4.3 | 0.00 | 0.00 | 0.00 | 43 | 990.9 |
| 20260506103400 | 75 | 280 | 4.3 | 6.1 | 0.00 | 0.00 | 0.00 | 43 | 991.1 |
| 20260506102859 | 74 | 247 | 7.8 | 8.7 | 0.00 | 0.00 | 0.00 | 43 | 990.9 |
| 20260506102359 | 74 | 233 | 4.3 | 10.4 | 0.00 | 0.00 | 0.00 | 43 | 990.9 |
| 20260506101858 | 73 | 238 | 9.6 | 10.4 | 0.00 | 0.00 | 0.00 | 43 | 991.1 |
| 20260506101358 | 72 | 66 | 0.0 | 0.9 | 0.00 | 0.00 | 0.00 | 46 | 990.9 |
| 20260506100857 | 72 | 266 | 4.3 | 7.0 | 0.00 | 0.00 | 0.00 | 48 | 991.2 |
| 20260506100357 | 72 | 224 | 0.9 | 1.7 | 0.00 | 0.00 | 0.00 | 48 | 991.3 |
| 20260506095856 | 71 | 225 | 5.2 | 6.1 | 0.00 | 0.00 | 0.00 | 48 | 991.3 |
| 20260506095356 | 71 | 316 | 2.6 | 4.3 | 0.00 | 0.00 | 0.00 | 48 | 991.2 |
| 20260506094855 | 71 | 229 | 3.5 | 5.2 | 0.00 | 0.00 | 0.00 | 49 | 991.3 |
| 20260506094355 | 71 | 266 | 2.6 | 3.5 | 0.00 | 0.00 | 0.00 | 50 | 991.2 |
| 20260506093854 | 70 | 182 | 1.7 | 3.5 | 0.00 | 0.00 | 0.00 | 51 | 991.1 |
| 20260506093353 | 69 | 218 | 3.5 | 7.8 | 0.00 | 0.00 | 0.00 | 52 | 991.3 |
| 20260506092853 | 69 | 157 | 2.6 | 5.2 | 0.00 | 0.00 | 0.00 | 51 | 991.3 |
| 20260506092352 | 69 | 238 | 3.5 | 4.3 | 0.00 | 0.00 | 0.00 | 52 | 991.3 |
| 20260506091852 | 69 | 247 | 7.0 | 9.6 | 0.00 | 0.00 | 0.00 | 51 | 991.5 |
| 20260506091351 | 69 | 253 | 2.6 | 4.3 | 0.00 | 0.00 | 0.00 | 51 | 991.6 |
| 20260506090851 | 68 | 176 | 3.5 | 5.2 | 0.00 | 0.00 | 0.00 | 52 | 991.5 |
| 20260506090350 | 68 | 237 | 2.6 | 5.2 | 0.00 | 0.00 | 0.00 | 52 | 991.4 |
| 20260506085849 | 68 | 212 | 2.6 | 3.5 | 0.00 | 0.00 | 0.00 | 51 | 991.2 |
| 20260506085349 | 69 | 259 | 2.6 | 2.6 | 0.00 | 0.00 | 0.00 | 50 | 991.1 |
| 20260506084849 | 69 | 194 | 4.3 | 7.8 | 0.00 | 0.00 | 0.00 | 51 | 991.3 |
| 20260506084348 | 68 | 122 | 2.6 | 3.5 | 0.00 | 0.00 | 0.00 | 51 | 991.1 |
| 20260506083847 | 68 | 202 | 1.7 | 2.6 | 0.00 | 0.00 | 0.00 | 50 | 991.1 |
| 20260506083347 | 68 | 245 | 5.2 | 7.8 | 0.00 | 0.00 | 0.00 | 50 | 990.9 |
| 20260506082846 | 68 | 226 | 1.7 | 2.6 | 0.00 | 0.00 | 0.00 | 50 | 990.9 |
| 20260506082346 | 66 | 257 | 1.7 | 2.6 | 0.00 | 0.00 | 0.00 | 52 | 990.9 |
| 20260506081845 | 68 | 246 | 2.6 | 7.0 | 0.00 | 0.00 | 0.00 | 49 | 990.8 |
| 20260506081344 | 68 | 147 | 0.0 | 0.9 | 0.00 | 0.00 | 0.00 | 49 | 990.8 |
| 20260506080844 | 68 | 217 | 2.6 | 4.3 | 0.00 | 0.00 | 0.00 | 49 | 991.1 |
| 20260506080343 | 69 | 137 | 1.7 | 1.7 | 0.00 | 0.00 | 0.00 | 48 | 990.9 |
| 20260506073340 | 68 | 229 | 3.5 | 5.2 | 0.00 | 0.00 | 0.00 | 48 | 991.0 |
| 20260506072839 | 67 | 223 | 0.9 | 0.9 | 0.00 | 0.00 | 0.00 | 48 | 990.9 |
| 20260506072339 | 67 | 178 | 3.5 | 6.1 | 0.00 | 0.00 | 0.00 | 46 | 990.9 |
| 20260506071838 | 67 | 223 | 1.7 | 2.6 | 0.00 | 0.00 | 0.00 | 48 | 991.2 |
| 20260506071338 | 67 | 153 | 0.9 | 1.7 | 0.00 | 0.00 | 0.00 | 48 | 991.0 |
| 20260506070837 | 65 | 217 | 1.7 | 2.6 | 0.00 | 0.00 | 0.00 | 49 | 991.1 |
| 20260506070336 | 64 | 211 | 0.9 | 1.7 | 0.00 | 0.00 | 0.00 | 51 | 991.2 |
| 20260506062332 | 62 | 224 | 2.6 | 3.5 | 0.00 | 0.00 | 0.00 | 55 | 990.8 |
| 20260506061831 | 61 | 222 | 4.3 | 4.3 | 0.00 | 0.00 | 0.00 | 54 | 990.9 |
| 20260506061331 | 61 | 194 | 1.7 | 1.7 | 0.00 | 0.00 | 0.00 | 54 | 990.8 |
| 20260506060830 | 61 | 231 | 2.6 | 3.5 | 0.00 | 0.00 | 0.00 | 54 | 990.8 |
| 20260506060330 | 61 | 196 | 4.3 | 7.0 | 0.00 | 0.00 | 0.00 | 53 | 990.9 |